{"data":{"norad_id":63288,"epoch":"2026-09-20T20:26:33.651168Z","epoch_age_seconds":278222,"freshness":"STALE","line1":"1 63288U 25054A   26263.85177837  .00000022  00000+0  88091-4 0  9991","line2":"2 63288  82.4985  19.0835 0024758 184.4642 175.6220 12.42871105 68745","mean_motion":12.42871105,"eccentricity":0.0024758,"inclination_deg":82.4985,"raan_deg":19.0835,"arg_perigee_deg":184.4642,"mean_anomaly_deg":175.622,"bstar":8.8091e-5,"rev_number":6874,"period_min":115.86076739631,"perigee_km":1474.9646847309,"apogee_km":1513.9466144947,"semimajor_km":7872.5926496128,"source":"CELESTRAK","updated_at":"2026-09-23T09:00:21.954585Z"}}